Skip Page Navigation
NASA JPL Caltech
NASA Logo - Jet Propulsion Laboratory + View the NASA Portal
+ Center for Near-Earth Object Studies
JPL Home Earth Solar System Stars & Galaxies Technology
JPL Solar System Dynamics
BODIES ORBITS EPHEMERIDES TOOLS PHYSICAL DATA DISCOVERY FAQ SITE MAP
IMPORTANT: The SSD Announcement email list is now available. Major changes are coming in the near future, including possible hostname and/or URL changes. To be notified of such changes, subscribe to this email list.

Please visit this page for more details.


JPL Small-Body Database Browser
Search: [ help ]  
39572 (1993 DQ1)
Classification: Amor [NEO, PHA]          SPK-ID: 2039572
Ephemeris | Orbit Diagram | Orbital Elements | Mission Design | Physical Parameters | Discovery Circumstances | Close-Approach Data ]

[ show orbit diagram ]
Orbital Elements at Epoch 2458600.5 (2019-Apr-27.0) TDB
Reference: JPL 153 (heliocentric ecliptic J2000)
 Element Value Uncertainty (1-sigma)   Units 
e .4923343004984874 4.0264e-08  
a 2.036630050765203 1.3862e-08 au
q 1.033927219347518 7.8789e-08 au
i 10.02389405122211 4.9541e-06 deg
node 313.5538757576067 2.4975e-05 deg
peri 344.8055275929321 2.5339e-05 deg
M 247.7235793142464 1.5117e-05 deg
tp 2458931.595064185132
(2020-Mar-23.09506419)
4.7864e-05 TDB
period 1061.614027047192
2.91
1.0839e-05
2.968e-08
d
yr
n .3391062955350314 3.4622e-09 deg/d
Q 3.039332882182889 2.0687e-08 au
  Orbit Determination Parameters
   # obs. used (total)      744  
   data-arc span      9496 days (26.00 yr)  
   first obs. used      1993-02-26  
   last obs. used      2019-02-26  
   planetary ephem.      DE431  
   SB-pert. ephem.      SB431-N16  
   condition code      0  
   norm. resid. RMS      .5645  
   source      ORB  
   producer      Otto Matic  
   solution date      2019-Feb-27 07:17:02  

Additional Information
 Earth MOID = .0281039 au 
 Jupiter MOID = 2.21965 au 
 T_jup = 3.627 
[ show covariance matrix ]

Ephemeris | Orbit Diagram | Orbital Elements | Mission Design | Physical Parameters | Discovery Circumstances | Close-Approach Data ]

Physical Parameter Table
Parameter Symbol Value Units Sigma Reference Notes
absolute magnitude H 16.5   n/a MPO319562  
diameter diameter 1.554 km 0.655 urn:nasa:pds:neowise_diameters_albedos::2.0[neos] (http://adsabs.harvard.edu/abs/2015ApJ...814..117N)  
geometric albedo albedo 0.184   0.163 urn:nasa:pds:neowise_diameters_albedos::2.0[neos] (http://adsabs.harvard.edu/abs/2015ApJ...814..117N)  

39572 (1993 DQ1)          Discovered 1993-Feb-26 by Spacewatch at Kitt Peak
Reference: 20020526/Numbers.arcLast Updated: 2004-04-19

[ show close-approach data ]
Ephemeris | Orbit Diagram | Orbital Elements | Mission Design | Physical Parameters | Discovery Circumstances | Close-Approach Data ]
ABOUT SSD CREDITS/AWARDS PRIVACY/COPYRIGHT GLOSSARY LINKS
FirstGov 2020-Jan-27 01:07 UT
(server date/time)  
NASA Home Page
Site Manager:   Ryan S. Park
Webmaster  Alan B. Chamberlin